When you browse on this site, cookies collect data to enhance your experience and personalize the content and advertising you see.
Visit our Privacy Policy to learn more. By continuing to use the site, you agree to this use of cookies and data.
  • In Portugal
  • List of Countries
  • For 7 days
  • Water Temperature
  • Satellite Maps
  • Weather Map
  • Weather Widgets
  • user-avatar
    Login

    Hourly Weather Podskale

    Today, 17 January, Thursday

    Time Temperature Precipitation Wind Pressure Humidity
    00:00 0°C° 0 mm 3 mps 740 mmHg 87%
    01:00 -1°C° 0 mm 3 mps 739 mmHg 87%
    02:00 -1°C° 0 mm 3 mps 739 mmHg 87%
    03:00 -1°C° 0 mm 3 mps 739 mmHg 86%
    04:00 -1°C° 0 mm 3 mps 738 mmHg 85%
    05:00 -1°C° 0 mm 3 mps 738 mmHg 83%
    06:00 -1°C° 0 mm 4 mps 738 mmHg 81%
    07:00 -1°C° 0 mm 4 mps 737 mmHg 80%
    08:00 -1°C° 0 mm 4 mps 737 mmHg 77%
    09:00 0°C° 0 mm 4 mps 737 mmHg 75%
    10:00 +1°C° 0 mm 4 mps 737 mmHg 73%
    11:00 +1°C° 0 mm 4 mps 737 mmHg 75%
    12:00 +3°C° 0 mm 4 mps 738 mmHg 77%
    13:00 +3°C° 0 mm 4 mps 738 mmHg 79%
    14:00 +3°C° 0 mm 4 mps 738 mmHg 81%
    15:00 +1°C° 0 mm 4 mps 738 mmHg 82%
    16:00 +1°C° 0 mm 4 mps 738 mmHg 84%
    17:00 0°C° 0 mm 4 mps 738 mmHg 85%
    18:00 +1°C° 0 mm 3 mps 738 mmHg 86%
    19:00 0°C° 0 mm 3 mps 738 mmHg 87%
    20:00 0°C° 0 mm 3 mps 737 mmHg 85%
    21:00 +1°C° 0 mm 3 mps 737 mmHg 84%
    22:00 +1°C° 0 mm 3 mps 737 mmHg 83%
    23:00 0°C° 0 mm 4 mps 737 mmHg 83%

    Tomorrow, 18 January, Friday

    Time Temperature Precipitation Wind Pressure Humidity
    00:00 0°C° 0 mm 4 mps 737 mmHg 83%
    01:00 +1°C° 0 mm 4 mps 737 mmHg 83%
    02:00 +1°C° 0 mm 4 mps 737 mmHg 84%
    03:00 +1°C° 0 mm 4 mps 737 mmHg 84%
    04:00 +1°C° 0 mm 5 mps 737 mmHg 85%
    05:00 +1°C° 0.1 mm 5 mps 738 mmHg 85%
    06:00 0°C° 0.1 mm 5 mps 738 mmHg 86%
    07:00 0°C° 0.1 mm 5 mps 739 mmHg 86%
    08:00 0°C° 0 mm 5 mps 739 mmHg 84%
    09:00 0°C° 0 mm 5 mps 740 mmHg 82%
    10:00 -1°C° 0 mm 6 mps 740 mmHg 80%
    11:00 -1°C° 0 mm 6 mps 740 mmHg 76%
    12:00 -2°C° 0 mm 7 mps 741 mmHg 72%
    13:00 -2°C° 0 mm 7 mps 741 mmHg 68%
    14:00 -2°C° 0 mm 7 mps 742 mmHg 70%
    15:00 -3°C° 0 mm 6 mps 743 mmHg 73%
    16:00 -3°C° 0 mm 6 mps 744 mmHg 75%
    17:00 -2°C° 0 mm 5 mps 744 mmHg 77%
    18:00 -2°C° 0 mm 4 mps 745 mmHg 80%
    19:00 -3°C° 0 mm 4 mps 746 mmHg 83%
    20:00 -3°C° 0 mm 4 mps 747 mmHg 83%
    21:00 -2°C° 0 mm 3 mps 747 mmHg 83%
    22:00 -4°C° 0 mm 3 mps 748 mmHg 83%
    23:00 -4°C° 0 mm 3 mps 748 mmHg 84%

    Day after tomorrow, 19 January, Saturday

    Time Temperature Precipitation Wind Pressure Humidity
    00:00 -4°C° 0 mm 3 mps 749 mmHg 84%
    01:00 -4°C° 0 mm 3 mps 749 mmHg 85%
    02:00 -4°C° 0 mm 3 mps 749 mmHg 85%
    03:00 -4°C° 0 mm 3 mps 749 mmHg 85%
    04:00 -4°C° 0 mm 3 mps 749 mmHg 85%
    05:00 -4°C° 0 mm 2 mps 749 mmHg 85%
    06:00 -4°C° 0 mm 2 mps 750 mmHg 84%
    07:00 -4°C° 0 mm 2 mps 750 mmHg 84%
    08:00 -3°C° 0 mm 2 mps 750 mmHg 80%
    09:00 -3°C° 0 mm 2 mps 750 mmHg 76%
    10:00 -3°C° 0 mm 2 mps 750 mmHg 72%
    11:00 0°C° 0 mm 1 mps 750 mmHg 68%
    12:00 0°C° 0 mm 1 mps 750 mmHg 63%
    13:00 +1°C° 0 mm 1 mps 749 mmHg 59%
    14:00 0°C° 0 mm 1 mps 749 mmHg 63%
    15:00 0°C° 0 mm 1 mps 749 mmHg 66%
    16:00 0°C° 0 mm 1 mps 749 mmHg 69%
    17:00 -1°C° 0 mm 1 mps 749 mmHg 72%
    18:00 -1°C° 0 mm 1 mps 749 mmHg 74%
    19:00 -1°C° 0 mm 1 mps 749 mmHg 76%
    20:00 -3°C° 0 mm 2 mps 749 mmHg 76%
    21:00 -4°C° 0 mm 2 mps 749 mmHg 77%
    22:00 -4°C° 0 mm 2 mps 749 mmHg 77%
    23:00 -4°C° 0 mm 2 mps 748 mmHg 78%

    20 January, Sunday

    Time Temperature Precipitation Wind Pressure Humidity
    00:00 -4°C° 0 mm 2 mps 748 mmHg 79%
    01:00 -4°C° 0 mm 2 mps 748 mmHg 79%
    02:00 -4°C° 0 mm 2 mps 748 mmHg 80%
    03:00 -4°C° 0 mm 2 mps 747 mmHg 80%
    04:00 -5°C° 0 mm 2 mps 747 mmHg 81%
    05:00 -5°C° 0 mm 2 mps 747 mmHg 81%
    06:00 -5°C° 0 mm 2 mps 746 mmHg 81%
    07:00 -5°C° 0 mm 2 mps 746 mmHg 82%
    08:00 -4°C° 0 mm 2 mps 746 mmHg 81%
    09:00 -2°C° 0 mm 1 mps 746 mmHg 79%
    10:00 -2°C° 0 mm 1 mps 746 mmHg 78%
    11:00 -2°C° 0 mm 1 mps 746 mmHg 76%
    12:00 -1°C° 0 mm 1 mps 746 mmHg 74%
    13:00 -1°C° 0 mm 1 mps 746 mmHg 72%
    14:00 -1°C° 0 mm 1 mps 746 mmHg 74%
    15:00 -1°C° 0 mm 1 mps 746 mmHg 76%
    16:00 -1°C° 0 mm 1 mps 746 mmHg 77%
    17:00 -1°C° 0 mm 1 mps 746 mmHg 79%
    18:00 -2°C° 0 mm 1 mps 746 mmHg 81%
    19:00 -2°C° 0 mm 1 mps 747 mmHg 83%
    20:00 -2°C° 0 mm 1 mps 747 mmHg 84%
    21:00 -2°C° 0 mm 1 mps 747 mmHg 85%
    22:00 -3°C° 0 mm 1 mps 748 mmHg 85%
    23:00 -3°C° 0 mm 1 mps 748 mmHg 84%

    21 January, Monday

    Time Temperature Precipitation Wind Pressure Humidity
    00:00 -3°C° 0 mm 1 mps 748 mmHg 83%
    01:00 -3°C° 0 mm 1 mps 748 mmHg 82%
    02:00 -3°C° 0 mm 1 mps 748 mmHg 81%
    03:00 -3°C° 0 mm 1 mps 748 mmHg 80%
    04:00 -3°C° 0 mm 1 mps 749 mmHg 79%
    05:00 -4°C° 0 mm 1 mps 749 mmHg 80%
    06:00 -4°C° 0 mm 1 mps 749 mmHg 81%
    07:00 -4°C° 0 mm 1 mps 749 mmHg 82%
    08:00 -5°C° 0 mm 2 mps 750 mmHg 79%
    09:00 -5°C° 0 mm 2 mps 750 mmHg 77%
    10:00 -4°C° 0 mm 2 mps 750 mmHg 74%
    11:00 -2°C° 0 mm 1 mps 750 mmHg 71%
    12:00 -1°C° 0 mm 1 mps 750 mmHg 68%
    13:00 0°C° 0 mm 1 mps 750 mmHg 64%
    14:00 -1°C° 0 mm 1 mps 750 mmHg 67%
    15:00 -2°C° 0 mm 0 mps 750 mmHg 69%
    16:00 -2°C° 0 mm 0 mps 750 mmHg 71%
    17:00 -3°C° 0 mm 0 mps 750 mmHg 73%
    18:00 -2°C° 0 mm 1 mps 750 mmHg 74%
    19:00 -2°C° 0 mm 1 mps 750 mmHg 76%
    20:00 -2°C° 0 mm 1 mps 750 mmHg 77%
    21:00 -4°C° 0 mm 2 mps 750 mmHg 79%
    22:00 -5°C° 0 mm 2 mps 750 mmHg 80%
    23:00 -5°C° 0 mm 2 mps 750 mmHg 81%

    22 January, Tuesday

    Time Temperature Precipitation Wind Pressure Humidity
    00:00 -5°C° 0 mm 2 mps 749 mmHg 82%
    01:00 -6°C° 0 mm 2 mps 749 mmHg 83%
    02:00 -6°C° 0 mm 2 mps 749 mmHg 83%
    03:00 -6°C° 0 mm 2 mps 748 mmHg 83%
    04:00 -6°C° 0 mm 2 mps 748 mmHg 83%
    05:00 -6°C° 0 mm 1 mps 747 mmHg 81%
    06:00 -6°C° 0 mm 1 mps 747 mmHg 79%
    07:00 -6°C° 0 mm 1 mps 747 mmHg 77%
    08:00 -6°C° 0 mm 1 mps 747 mmHg 73%
    09:00 -4°C° 0 mm 1 mps 746 mmHg 68%
    10:00 -4°C° 0 mm 1 mps 746 mmHg 63%
    11:00 -5°C° 0 mm 2 mps 745 mmHg 62%
    12:00 -4°C° 0 mm 2 mps 744 mmHg 61%
    13:00 -3°C° 0 mm 2 mps 744 mmHg 60%
    14:00 -3°C° 0 mm 2 mps 743 mmHg 66%
    15:00 -5°C° 0 mm 3 mps 743 mmHg 73%
    16:00 -5°C° 0 mm 3 mps 742 mmHg 79%
    17:00 -5°C° 0 mm 3 mps 742 mmHg 81%
    18:00 -5°C° 0 mm 4 mps 741 mmHg 82%
    19:00 -7°C° 0 mm 4 mps 741 mmHg 84%
    20:00 -7°C° 0 mm 4 mps 740 mmHg 85%
    21:00 -7°C° 0 mm 4 mps 740 mmHg 85%
    22:00 -8°C° 0 mm 5 mps 740 mmHg 86%
    23:00 -8°C° 0 mm 5 mps 739 mmHg 85%
    Show more